Weather History for KBIE - January, 2010

Change the Weather History Date:

Wednesday, January 6, 2010

  Actual Average (KLNK) Record (KLNK)
Temperature  
Mean Temperature 16 °F 24 °F  
Max Temperature 21 °F 35 °F 60 °F (1933)
Min Temperature 12 °F 14 °F -25 °F (1890)
Degree Days  
Heating Degree Days 48 41  
Month to date heating degree days 243  
Since 1 July heating degree days 2688  
Cooling Degree Days 0 0  
Month to date cooling degree days 0  
Year to date cooling degree days 0  
Moisture  
Dew Point 14 °F    
Average Humidity 87    
Maximum Humidity 95    
Minimum Humidity 82    
Precipitation  
Precipitation 0.02 in 0.02 in 0.40 in (1892)
Month to date precipitation 0.12  
Year to date precipitation 0.12  
Snow  
Snow 0.00 in 0.10 in - ()
Month to date snowfall 0.9  
Since 1 July snowfall 9.6  
Snow Depth -    
Sea Level Pressure  
Sea Level Pressure 30.15 in    
Wind  
Wind Speed 8 mph (SSE)    
Max Wind Speed 26 mph    
Max Gust Speed 34 mph    
Visibility 5 miles    
Events Snow    
T = Trace of Precipitation, MM = Missing Value Source: NWS Daily Summary

Daily Weather History Graph

Daily Weather History Graph

Search for Another Location

Airport or City:

Trip Planner

Search our weather history database for the weather conditions in past years. The results will help you decide how hot, cold, wet, or windy it might be!

Date:

Astronomy

Jan. 06, 2010 Rise Set
Actual Time 7:49 AM CST 5:16 PM CST
Civil Twilight 7:19 AM CST 5:46 PM CST
Nautical Twilight 6:45 AM CST 6:20 PM CST
Astronomical Twilight 6:12 AM CST 6:53 PM CST
Moon No Moon Rise 11:14 AM CST (1/6)
Length of Visible Light 10h 26m
Length of Day
9h 26m
Waning Gibbous, 58% of the Moon is Illuminated
Jan 6
Waning Gibbous
Jan 7
Last Quarter
Jan 15
New
Jan 23
First Quarter
Jan 30
Full

Hourly Weather History & Observations

Time (CST) Temp. Windchill Dew Point Humidity Pressure Visibility Wind Dir Wind Speed Gust Speed Precip Events Conditions
12:10 AM 14.0 °F 8.2 °F 9.5 °F 82% 30.23 in 10.0 mi ESE 3.5 mph - N/A   Overcast
12:30 AM 13.8 °F 6.2 °F 9.5 °F 83% 30.23 in 10.0 mi ESE 4.6 mph - N/A   Overcast
12:50 AM 13.8 °F 8.0 °F 9.5 °F 83% 30.22 in 10.0 mi ESE 3.5 mph - N/A   Overcast
1:10 AM 14.0 °F 5.1 °F 9.9 °F 84% 30.20 in 10.0 mi SE 5.8 mph - N/A   Overcast
1:30 AM 14.4 °F 3.3 °F 10.0 °F 83% 30.20 in 10.0 mi SE 8.1 mph - N/A   Overcast
1:50 AM 14.4 °F 5.5 °F 10.2 °F 84% 30.19 in 10.0 mi SE 5.8 mph - N/A   Overcast
2:10 AM 14.7 °F 4.8 °F 10.4 °F 83% 30.19 in 10.0 mi SE 6.9 mph - N/A   Overcast
2:30 AM 14.9 °F 5.0 °F 10.8 °F 84% 30.17 in 10.0 mi SE 6.9 mph - N/A   Overcast
2:50 AM 14.9 °F 5.0 °F 10.9 °F 84% 30.17 in 10.0 mi ESE 6.9 mph - N/A   Overcast
3:10 AM 15.4 °F 5.6 °F 11.5 °F 84% 30.17 in 10.0 mi SE 6.9 mph - N/A   Overcast
3:30 AM 15.6 °F 5.9 °F 12.0 °F 86% 30.17 in 10.0 mi SE 6.9 mph - N/A   Overcast
3:50 AM 15.8 °F 6.1 °F 12.0 °F 85% 30.16 in 10.0 mi SE 6.9 mph - N/A   Overcast
4:10 AM 15.8 °F 5.1 °F 12.2 °F 86% 30.15 in 10.0 mi SE 8.1 mph - N/A   Overcast
4:30 AM 15.8 °F 6.1 °F 12.2 °F 86% 30.14 in 10.0 mi SE 6.9 mph - N/A   Overcast
4:50 AM 15.8 °F 4.2 °F 11.8 °F 84% 30.13 in 10.0 mi SE 9.2 mph - N/A   Overcast
5:10 AM 16.0 °F 6.3 °F 12.0 °F 84% 30.13 in 10.0 mi SE 6.9 mph - N/A   Overcast
5:30 AM 15.8 °F 5.1 °F 12.2 °F 86% 30.12 in 10.0 mi SE 8.1 mph - N/A   Overcast
5:50 AM 16.5 °F 3.6 °F 12.7 °F 85% 30.11 in 10.0 mi SE 11.5 mph - N/A   Overcast
6:10 AM 16.3 °F 4.1 °F 13.1 °F 87% 30.11 in 5.0 mi SE 10.4 mph - N/A   Overcast
6:30 AM 16.5 °F 5.1 °F 14.0 °F 90% 30.11 in 3.0 mi SE 9.2 mph - N/A   Overcast
6:50 AM 16.7 °F 7.2 °F 14.9 °F 93% 30.11 in 2.5 mi SE 6.9 mph - N/A   Overcast
7:10 AM 16.7 °F 5.3 °F 15.3 °F 94% 30.12 in 3.0 mi SSE 9.2 mph - N/A   Overcast
7:30 AM 16.9 °F 6.4 °F 15.6 °F 95% 30.11 in 2.0 mi SE 8.1 mph - N/A Snow Light Snow
7:50 AM 17.1 °F 8.7 °F 15.6 °F 94% 30.11 in 1.5 mi SSE 5.8 mph - N/A Snow Light Snow
8:10 AM 17.2 °F 7.8 °F 15.4 °F 93% 30.11 in 1.0 mi SSE 6.9 mph - N/A Snow Light Snow
8:30 AM 17.4 °F 8.0 °F 15.3 °F 91% 30.11 in 1.5 mi SSE 6.9 mph - N/A Snow Light Snow
8:50 AM 17.6 °F 9.3 °F 15.4 °F 91% 30.12 in 1.8 mi South 5.8 mph - N/A Snow Light Snow
9:10 AM 17.8 °F 10.9 °F 15.6 °F 91% 30.13 in 0.8 mi SSE 4.6 mph - N/A Snow Light Snow
9:30 AM 18.0 °F 9.8 °F 15.4 °F 90% 30.13 in 1.2 mi SSE 5.8 mph - N/A Snow Light Snow
9:50 AM 18.3 °F 10.2 °F 15.8 °F 90% 30.13 in 0.8 mi SSE 5.8 mph - 0.01 in Snow Light Snow
10:10 AM 18.7 °F 11.9 °F 16.0 °F 89% 30.14 in 1.5 mi SSE 4.6 mph - N/A Snow Light Snow
10:30 AM 19.4 °F 12.8 °F 15.8 °F 86% 30.14 in 5.0 mi SSE 4.6 mph - N/A Snow Light Snow
10:50 AM 19.2 °F 11.3 °F 16.2 °F 88% 30.15 in 7.0 mi South 5.8 mph - N/A Snow Light Snow
11:10 AM 19.2 °F 12.5 °F 16.5 °F 89% 30.15 in 1.0 mi South 4.6 mph - N/A Snow Light Snow
11:30 AM 19.4 °F 14.3 °F 16.7 °F 89% 30.14 in 1.8 mi South 3.5 mph - N/A Snow Light Snow
11:50 AM 19.8 °F - 16.7 °F 88% 30.13 in 5.0 mi Calm Calm - N/A Snow Light Snow
12:10 PM 20.1 °F 15.2 °F 16.9 °F 87% 30.12 in 7.0 mi SW 3.5 mph - N/A   Overcast
12:30 PM 20.3 °F 13.8 °F 17.6 °F 89% 30.11 in 1.8 mi SW 4.6 mph - N/A Snow Light Snow
12:50 PM 20.8 °F 13.2 °F 18.1 °F 89% 30.11 in 1.8 mi WSW 5.8 mph - N/A Snow Light Snow
1:10 PM 20.5 °F 14.0 °F 18.1 °F 91% 30.10 in 1.2 mi West 4.6 mph - N/A Snow Light Snow
1:30 PM 21.0 °F 13.4 °F 18.5 °F 90% 30.10 in 1.8 mi West 5.8 mph - 0.01 in Snow Light Snow
1:50 PM 21.2 °F 11.7 °F 18.3 °F 89% 30.11 in 1.2 mi WNW 8.1 mph - 0.01 in Snow Light Snow
2:10 PM 21.0 °F 5.7 °F 17.8 °F 87% 30.11 in 1.2 mi NW 19.6 mph 24.2 mph N/A Snow Light Snow
2:30 PM 18.9 °F 1.0 °F 15.6 °F 87% 30.12 in 1.2 mi NNW 25.3 mph - N/A Snow Light Snow
2:50 PM 18.3 °F 1.0 °F 14.9 °F 86% 30.13 in 2.0 mi NNW 23.0 mph 26.5 mph N/A Snow Light Snow
3:10 PM 18.0 °F -0.2 °F 14.0 °F 84% 30.13 in 3.0 mi NNW 25.3 mph 32.2 mph N/A   Overcast
3:30 PM 17.8 °F 1.1 °F 13.1 °F 82% 30.15 in 3.0 mi NNW 20.7 mph - N/A   Haze
3:50 PM 17.6 °F 1.3 °F 13.1 °F 83% 30.15 in 4.0 mi NNW 19.6 mph 24.2 mph N/A Snow Light Snow
4:10 PM 17.4 °F 0.2 °F 13.3 °F 84% 30.17 in 2.0 mi NW 21.9 mph 27.6 mph N/A Snow Light Snow
4:30 PM 15.8 °F -3.4 °F 12.2 °F 86% 30.18 in 1.8 mi NNW 26.5 mph - N/A Snow Light Snow
4:50 PM 14.9 °F -4.6 °F 11.1 °F 85% 30.20 in 1.0 mi NNW 26.5 mph 32.2 mph N/A Snow Light Snow
5:10 PM 14.7 °F -4.5 °F 10.9 °F 85% 30.20 in 1.2 mi NNW 25.3 mph 34.5 mph N/A Snow Light Snow
5:30 PM 14.0 °F -4.3 °F 10.4 °F 86% 30.20 in 1.8 mi NNW 21.9 mph - N/A Snow Light Snow
5:50 PM 13.5 °F -6.5 °F 10.0 °F 86% 30.21 in 1.8 mi NNW 26.5 mph - N/A Snow Light Snow
6:10 PM 12.9 °F -6.5 °F 9.1 °F 85% 30.21 in 2.5 mi NNW 24.2 mph 33.4 mph N/A   Mostly Cloudy
6:30 PM 12.9 °F -3.4 °F 8.2 °F 82% 30.21 in 3.0 mi NNW 16.1 mph 25.3 mph N/A   Haze
6:50 PM 12.7 °F -5.5 °F 8.6 °F 84% 30.24 in 3.0 mi NW 20.7 mph 28.8 mph N/A Snow Light Snow
7:10 PM 12.2 °F -7.5 °F 8.2 °F 84% 30.25 in 1.2 mi NNW 24.2 mph 34.5 mph N/A Snow Light Snow
7:30 PM 12.0 °F -9.8 °F 7.7 °F 83% 30.27 in 2.0 mi NW 31.1 mph 36.8 mph N/A   Overcast
7:50 PM 11.3 °F -9.4 °F 6.8 °F 82% 30.25 in 2.0 mi NW 26.5 mph 32.2 mph N/A   Overcast
8:10 PM 10.6 °F -10.8 °F 5.9 °F 81% 30.28 in 1.2 mi NW 27.6 mph 36.8 mph N/A Snow Light Snow
8:30 PM 10.2 °F -12.9 °F 5.5 °F 81% 30.27 in 1.5 mi NW 33.4 mph 36.8 mph N/A Snow Light Snow
8:50 PM 9.5 °F -12.6 °F 5.2 °F 83% 30.27 in 1.0 mi NW 28.8 mph 38.0 mph N/A Snow Light Snow
9:10 PM 9.1 °F -12.3 °F 4.3 °F 81% 30.27 in 1.2 mi NNW 26.5 mph 35.7 mph N/A Snow Light Snow
9:30 PM 8.4 °F -14.0 °F 3.7 °F 81% 30.29 in 1.5 mi NW 28.8 mph 39.1 mph N/A Snow Light Snow
9:50 PM 7.7 °F -13.9 °F 3.2 °F 82% 30.29 in 2.5 mi NW 25.3 mph 33.4 mph N/A   Haze
10:10 PM 7.0 °F -14.9 °F 2.3 °F 81% 30.31 in 1.5 mi NW 25.3 mph 38.0 mph N/A Snow Light Snow
10:30 PM 6.6 °F -15.3 °F 1.4 °F 79% 30.30 in 3.0 mi NW 25.3 mph 29.9 mph N/A   Haze
10:50 PM 5.9 °F -15.5 °F 0.1 °F 77% 30.30 in 7.0 mi NW 23.0 mph 28.8 mph N/A   Clear
11:10 PM 5.7 °F -15.3 °F -0.4 °F 76% 30.30 in 7.0 mi NW 21.9 mph 28.8 mph N/A   Clear
11:30 PM 5.0 °F -17.1 °F -0.4 °F 78% 30.31 in 5.0 mi NW 24.2 mph 31.1 mph N/A   Haze
11:50 PM 5.4 °F -15.3 °F -0.8 °F 76% 30.30 in 7.0 mi NW 20.7 mph 26.5 mph N/A   Scattered Clouds